date:2026-04-16T07:56:36+00:00
validtle:1
satid:43782
launchyear:2018
epoch:26102.09823723
epochday:102
tleage:4
tleclassification:U
active:1
name:SNUSAT-2
meananomly:200.1143
meanmotion:15.2084
rightascension:0.0000
declination:0.0000
semimajoraxis:6881.4464624546
altitudeatperigee:496
altitudeatapogee:511
inclination:97.4131
eccentricity:0.0011221
argumentofperigree:160.0533
nickname:SNUSAT-2
idesg:18099AA 
cosparid:2018-099AA
altkm:513.65404055977
velkms:7.602887876934
velkmh:27370
onumepoch:40298
onumnow:612932.23
otype:1
otypedesc:Low Earth Orbit (LEO)
status:1
timestamp:2026-04-12T02:21:28+00:00
nowjuliandate:2461146.830973
nowepochdate:26106.3309722222
TLE:
SNUSAT-2
1 43782U 18099AA  26102.09823723  .00006988  00000+0  31918-3 0  9991
2 43782  97.4131 156.5267 0011221 160.0533 200.1143 15.20839393402985